DK7LH-6 Weather Reports


time (UTC)temp
C
wind
direction
speed
KPH
gust
KPH
rain 1hr
cm
rain 24hr
cm
rain mn
cm
humidity
%
barometer
mb
20260506201619 9 0.0 0.0 0.00 0.51 0.51 95 1009.9
20260506200148 9 0.0 0.0 0.00 0.51 0.51 95 1009.8
20260506194618 9 0.0 0.0 0.00 0.51 0.51 94 1009.8
20260506193116 9 58 0.0 1.6 0.00 0.51 0.51 94 1009.6
20260506191546 9 0.0 0.0 0.00 0.51 0.51 93 1009.4
20260506190118 9 0.0 0.0 0.00 0.51 0.51 93 1009.2
20260506184547 9 0.0 0.0 0.00 0.51 0.51 92 1009.1
20260506183017 9 9 0.0 1.6 0.00 0.51 0.51 92 1009.1
20260506181549 9 21 1.6 1.6 0.00 0.51 0.51 92 1009.0
20260506180019 9 13 0.0 1.6 0.03 0.51 0.51 92 1008.9
20260506174551 9 6 1.6 4.8 0.03 0.51 0.51 92 1008.9
20260506173021 8 15 3.2 6.4 0.03 0.51 0.51 92 1008.8
20260506171553 8 358 4.8 9.7 0.03 0.51 0.51 92 1008.7
20260506170023 8 101 4.8 6.4 0.03 0.48 0.48 91 1008.6
20260506164556 9 69 1.6 1.6 0.03 0.48 0.48 91 1008.5
20260506163026 9 61 1.6 1.6 0.05 0.48 0.48 91 1008.6
20260506161557 9 50 1.6 1.6 0.08 0.48 0.48 92 1008.6
20260506160027 9 31 0.0 1.6 0.08 0.46 0.46 92 1008.7
20260506154559 9 18 0.0 1.6 0.10 0.46 0.46 91 1008.7
20260506153029 9 33 1.6 4.8 0.10 0.43 0.43 91 1008.8
20260506151601 9 22 3.2 6.4 0.10 0.41 0.41 90 1008.8
20260506150031 9 40 1.6 4.8 0.10 0.38 0.38 90 1008.8
20260506144603 9 36 3.2 6.4 0.13 0.36 0.36 90 1008.6
20260506143033 9 30 1.6 6.4 0.13 0.33 0.33 89 1008.6
20260506141606 8 46 1.6 4.8 0.13 0.30 0.30 89 1008.6
20260506140036 8 31 1.6 4.8 0.13 0.28 0.28 88 1008.6
20260506134607 8 23 1.6 4.8 0.08 0.23 0.23 87 1008.6
20260506133037 8 9 3.2 9.7 0.08 0.20 0.20 86 1008.7
20260506131609 8 6 4.8 11.3 0.08 0.18 0.18 85 1008.5
20260506130039 8 352 3.2 9.7 0.08 0.15 0.15 85 1008.5
20260506124611 9 26 3.2 11.3 0.08 0.15 0.15 85 1008.4
20260506123112 9 25 1.6 4.8 0.08 0.13 0.13 85 1008.3
20260506121542 9 33 3.2 6.4 0.08 0.10 0.10 86 1008.3
20260506120114 9 54 1.6 11.3 0.05 0.08 0.08 84 1008.2
20260506114544 9 53 1.6 4.8 0.05 0.08 0.08 84 1008.1
20260506113116 9 359 3.2 9.7 0.05 0.05 0.05 81 1008.1
20260506111546 9 81 4.8 11.3 0.03 0.03 0.03 79 1008.2
20260506110016 9 50 3.2 6.4 0.03 0.03 0.03 80 1008.0
20260506104548 9 30 3.2 9.7 0.03 0.03 0.03 78 1008.0
20260506103018 10 50 1.6 6.4 0.00 0.00 0.00 79 1008.0
20260506101550 10 54 3.2 6.4 0.00 0.00 0.00 78 1008.0
20260506100020 10 69 1.6 6.4 0.00 0.00 0.00 75 1008.0
20260506094552 10 79 3.2 6.4 0.00 0.00 0.00 73 1007.8
20260506093022 10 33 4.8 11.3 0.00 0.00 0.00 72 1007.9
20260506091554 10 43 6.4 14.5 0.00 0.00 0.00 70 1007.7
20260506090024 10 28 3.2 9.7 0.00 0.00 0.00 70 1007.6
20260506084556 10 35 3.2 9.7 0.00 0.00 0.00 71 1007.6
20260506083026 10 31 4.8 14.5 0.00 0.00 0.00 72 1007.5
20260506081558 10 71 6.4 20.9 0.00 0.00 0.00 69 1007.2
20260506073030 10 28 6.4 16.1 0.00 0.00 0.00 75 1007.0
20260506071602 9 24 6.4 11.3 0.00 0.00 0.00 76 1006.9
20260506070104 9 29 6.4 11.3 0.00 0.00 0.00 78 1006.9
20260506061536 8 34 6.4 20.9 0.00 0.00 0.00 82 1006.8
20260506060108 8 3 6.4 14.5 0.00 0.00 0.00 83 1006.9
20260506050111 8 31 3.2 11.3 0.00 0.00 0.00 84 1006.9
20260506044541 9 33 4.8 16.1 0.00 0.00 0.00 83 1006.9
20260506043113 9 28 4.8 9.7 0.00 0.00 0.00 81 1006.9
20260506041543 9 26 6.4 17.7 0.00 0.00 0.00 79 1007.0
20260506040045 9 23 1.6 6.4 0.00 0.00 0.00 77 1007.0
20260506034616 9 347 3.2 6.4 0.00 0.00 0.00 78 1006.8
20260506033046 9 58 3.2 9.7 0.00 0.00 0.00 80 1006.9
20260506031516 10 43 3.2 9.7 0.00 0.00 0.00 81 1007.1
20260506030049 10 24 3.2 9.7 0.00 0.00 0.00 81 1007.2
20260506024519 10 51 3.2 4.8 0.00 0.00 0.00 82 1007.4
20260506023050 10 17 4.8 20.9 0.00 0.00 0.00 82 1007.3
20260506021520 10 30 3.2 11.3 0.00 0.00 0.00 82 1007.3
20260506020053 10 19 3.2 9.7 0.00 0.00 0.00 82 1007.5
20260506014523 10 9 3.2 9.7 0.00 0.00 0.00 82 1007.6
20260506013054 10 67 4.8 11.3 0.00 0.00 0.00 82 1007.6
20260506011524 10 48 4.8 14.5 0.00 0.03 0.00 82 1007.6
20260506010057 10 81 4.8 22.5 0.00 0.08 0.00 82 1007.7
20260506004527 10 13 1.6 6.4 0.00 0.25 0.00 82 1007.7
20260506003058 10 43 3.2 11.3 0.00 0.41 0.00 82 1007.9
20260506001528 10 29 1.6 4.8 0.00 0.46 0.00 82 1007.8
20260506000101 10 43 3.2 11.3 0.00 0.58 0.00 82 1008.0
20260505234531 10 37 3.2 11.3 0.00 0.58 0.00 82 1008.1
20260505233102 11 1 3.2 11.3 0.00 0.61 0.00 83 1008.2
20260505231532 11 22 1.6 1.6 0.00 0.61 0.00 83 1008.3
20260505230105 11 23 1.6 4.8 0.00 0.61 0.00 84 1008.4
20260505224535 11 36 6.4 16.1 0.00 0.61 0.00 84 1008.3
20260505223106 11 20 4.8 9.7 0.00 0.61 0.00 83 1008.3
20260505221536 11 24 6.4 9.7 0.00 0.61 0.00 82 1008.4
20260505220109 11 9 4.8 9.7 0.00 0.61 0.00 82 1008.6
20260505214539 11 16 4.8 9.7 0.00 0.61 0.61 83 1008.7
20260505213110 11 15 3.2 6.4 0.00 0.61 0.61 85 1008.8
20260505211540 11 7 1.6 4.8 0.00 0.61 0.61 85 1008.8
20260505210112 11 40 3.2 9.7 0.00 0.61 0.61 87 1008.8
20260505204542 11 24 4.8 11.3 0.00 0.61 0.61 87 1008.9
20260505203114 11 22 6.4 11.3 0.00 0.61 0.61 88 1008.9